Weather History for Vicksburg, MS

Change the Weather History Date:

Friday, February 7, 2014

  Actual Average Record
Temperature  
Mean Temperature 36 °F 48 °F  
Max Temperature 44 °F 58 °F 76 °F (2009)
Min Temperature 27 °F 38 °F 15 °F (1988)
Degree Days  
Heating Degree Days 29 17  
Month to date heating degree days 159 124  
Since 1 July heating degree days 2052 1668  
Cooling Degree Days 0 0  
Month to date cooling degree days 0 0  
Year to date cooling degree days 0 3  
Moisture  
Dew Point 24 °F    
Average Humidity 68    
Maximum Humidity 82    
Minimum Humidity 53    
Precipitation  
Precipitation T in 0.19 in 1.90 in (1972)
Month to date precipitation 1.75 1.20  
Year to date precipitation 4.01 6.27  
Sea Level Pressure  
Sea Level Pressure 30.39 in    
Wind  
Wind Speed 8 mph (NNE)    
Max Wind Speed 14 mph    
Max Gust Speed 17 mph    
Visibility 10 miles    
Events Rain    
T = Trace of Precipitation, MM = Missing Value Source: NWS Daily Summary

Daily Weather History Graph

Daily Weather History Graph

Search for Another Location

Airport:

Trip Planner

Search our weather history database for the weather conditions in past years. The results will help you decide how hot, cold, wet, or windy it might be!

Date:

Astronomy

Feb. 07, 2014 Rise Set
Actual Time 6:53 AM CST 5:43 PM CST
Civil Twilight 6:28 AM CST 6:08 PM CST
Nautical Twilight 5:59 AM CST 6:37 PM CST
Astronomical Twilight 5:30 AM CST 7:06 PM CST
Moon 11:58 AM CST (2/7) 1:07 AM CST (2/7)
Length of Visible Light 11h 40m
Length of Day
10h 49m
First Quarter, 59% of the Moon is Illuminated
Feb 7
First Quarter
Feb 14
Full
Feb 22
Last Quarter
Mar 1
New
Mar 8
First Quarter

Hourly Weather History & Observations

Time (CST) Temp. Windchill Dew Point Humidity Pressure Visibility Wind Dir Wind Speed Gust Speed Precip Events Conditions
12:53 AM 27.0 °F 17.3 °F 21.0 °F 78% 30.43 in 10.0 mi NNE 10.4 mph - N/A   Overcast
1:53 AM 27.0 °F 21.6 °F 21.9 °F 81% 30.45 in 10.0 mi North 4.6 mph - N/A   Overcast
2:53 AM 27.0 °F 19.5 °F 21.0 °F 78% 30.44 in 10.0 mi NNE 6.9 mph - N/A   Overcast
3:26 AM 27.0 °F 18.7 °F 21.0 °F 78% 30.41 in 10.0 mi NNE 8.1 mph - N/A   Overcast
3:53 AM 27.0 °F 18.7 °F 21.9 °F 81% 30.44 in 10.0 mi North 8.1 mph - N/A   Overcast
4:11 AM 27.0 °F 18.0 °F 21.9 °F 81% 30.41 in 10.0 mi NNE 9.2 mph - N/A   Overcast
4:53 AM 27.0 °F 18.7 °F 21.9 °F 81% 30.43 in 10.0 mi NNE 8.1 mph - N/A   Overcast
5:21 AM 28.0 °F 19.3 °F 21.9 °F 78% 30.40 in 10.0 mi NE 9.2 mph - N/A   Overcast
5:53 AM 28.0 °F 20.8 °F 21.9 °F 78% 30.43 in 10.0 mi NNE 6.9 mph - N/A   Overcast
6:00 AM 28.0 °F 20.8 °F 21.9 °F 78% 30.40 in 10.0 mi NNE 6.9 mph - N/A   Overcast
6:53 AM 28.0 °F 19.3 °F 21.9 °F 78% 30.44 in 10.0 mi NNE 9.2 mph - N/A   Overcast
7:13 AM 28.0 °F 19.3 °F 21.9 °F 78% 30.42 in 10.0 mi North 9.2 mph - N/A   Overcast
7:53 AM 28.9 °F 21.9 °F 23.0 °F 78% 30.45 in 10.0 mi NNE 6.9 mph - N/A   Overcast
8:53 AM 30.0 °F 22.4 °F 23.0 °F 75% 30.47 in 10.0 mi NE 8.1 mph - N/A   Overcast
9:26 AM 30.9 °F 23.5 °F 23.0 °F 72% 30.45 in 10.0 mi ENE 8.1 mph - N/A   Overcast
9:53 AM 30.9 °F 24.3 °F 23.0 °F 72% 30.47 in 9.0 mi NE 6.9 mph - N/A   Overcast
10:53 AM 34.0 °F 28.0 °F 24.1 °F 67% 30.45 in 9.0 mi NNE 6.9 mph - N/A   Overcast
11:53 AM 36.0 °F 29.6 °F 25.0 °F 64% 30.40 in 10.0 mi ENE 8.1 mph - N/A   Overcast
12:53 PM 37.9 °F 32.1 °F 25.0 °F 60% 30.37 in 10.0 mi NNE 8.1 mph - N/A   Overcast
1:53 PM 39.9 °F 35.8 °F 26.1 °F 58% 30.32 in 10.0 mi Variable 5.8 mph - N/A   Scattered Clouds
2:53 PM 43.0 °F 37.2 °F 27.0 °F 53% 30.26 in 10.0 mi NNE 10.4 mph - N/A   Clear
3:53 PM 41.0 °F 34.7 °F 27.0 °F 57% 30.30 in 10.0 mi North 10.4 mph - N/A   Partly Cloudy
4:53 PM 39.0 °F 32.3 °F 28.0 °F 65% 30.32 in 10.0 mi NW 10.4 mph - N/A   Overcast
5:53 PM 36.0 °F 29.0 °F 28.0 °F 73% 30.33 in 10.0 mi NNW 9.2 mph - 0.00 in Rain Light Rain
6:53 PM 35.1 °F 26.9 °F 28.0 °F 76% 30.34 in 10.0 mi North 11.5 mph - 0.00 in   Overcast
7:53 PM 34.0 °F 27.2 °F 28.0 °F 79% 30.35 in 10.0 mi NNE 8.1 mph - 0.00 in   Overcast
8:53 PM 33.1 °F 26.9 °F 28.0 °F 82% 30.34 in 10.0 mi North 6.9 mph - 0.00 in   Overcast
9:53 PM 33.1 °F 26.9 °F 28.0 °F 82% 30.35 in 10.0 mi NNE 6.9 mph - 0.00 in   Overcast
10:53 PM 33.1 °F 26.1 °F 28.0 °F 82% 30.35 in 10.0 mi North 8.1 mph - N/A   Overcast
11:53 PM 32.0 °F 25.6 °F 28.9 °F 88% 30.34 in 10.0 mi NNE 6.9 mph - 0.00 in   Overcast